Regional Weather Roundup
Issued by NWS Nashville, TN

Home | Current Version | Previous Version | Text Only | Print | Product List | Glossary On
Versions: 1 2 3 4 5 6 7 8 9 10 11 12 13 14 15 16 17 18 19 20 21 22 23 24 25 26 27 28 29 30 31 32 33 34 35 36 37 38 39 40 41 42 43 44 45 46 47 48 49 50
000
ASUS44 KOHX 272115
RWROHX
MIDDLE TENNESSEE HOURLY WEATHER ROUNDUP
NATIONAL WEATHER SERVICE NASHVILLE TN
400 PM CDT WED AUG 27 2014

NOTE: "FAIR" INDICATES FEW OR NO CLOUDS BELOW 12,000 FEET WITH
NO SIGNIFICANT WEATHER AND/OR OBSTRUCTIONS TO VISIBILITY.

* THESE REPORTS ARE NOT UNDER NWS QUALITY CONTROL AND MAY NOT
  REPORT WEATHER SUCH AS PRECIPITATION AND FOG.


TNZ005>011-023>034-057-059-062>066-078-080-272200
...NORTHERN MIDDLE TENNESSEE...

CITY           SKY/WX    TMP DP  RH WIND       PRES   REMARKS
CLARKSVILLE    MOSUNNY   86  73  65 S6        30.04F HX  93
CROSSVILLE     SUNNY     86  61  42 N5        30.12F
GALLATIN         N/A     91  72  53 E7        30.06F HX  98
DICKSON        MOSUNNY   90  72  55 E5        30.06F HX  96
LEBANON        SUNNY     88  67  49 NE9       30.05F HX  91
NASHVILLE      PTSUNNY   91  69  48 E9        30.05F HX  96
WEST NASHVILLE   N/A     91  68  46 VRB5      30.04F HX  95
PORTLAND       MOSUNNY   88  70  55 E5        30.06F HX  92
SMYRNA         MOSUNNY   92  70  48 NE7       30.05F HX  97
SPARTA         SUNNY     90  66  45 N3        30.07F HX  92
$$
TNZ056-058-060-061-075>077-079-093>097-272200
...SOUTHERN MIDDLE TENNESSEE...

CITY           SKY/WX    TMP DP  RH WIND       PRES   REMARKS
COLUMBIA       MOSUNNY   91  73  55 CALM      30.04F HX 100
FAYETTEVILLE   SUNNY     86  64  48 NE5       30.06F
LEWISBURG      SUNNY     90  70  51 N3        30.05F HX  95
MCMINNVILLE    SUNNY     88  70  55 NE5       30.08S HX  92
MURFREESBORO   MOSUNNY   89  69  51 NE9       30.05F HX  93
SHELBYVILLE    SUNNY     91  72  52 N7        30.06F HX  98
TULLAHOMA      SUNNY     86  64  48 N5        30.08S
WINCHESTER     SUNNY     88  66  48 N3        30.06F HX  90
$$


...KEY TO REMARKS...
VSB - VISIBILITY IN MILES
WCI - WIND CHILL INDEX
HX  - HEAT INDEX




USA.gov is the U.S. government's official web portal to all federal, state and local government web resources and services.